Weather History for KBJI - September, 2012

Change the Weather History Date:

Monday, September 10, 2012

  Actual Average Record
Temperature  
Mean Temperature 64 °F -  
Max Temperature 82 °F 69 °F 90 °F (1952)
Min Temperature 46 °F 46 °F 30 °F (1955)
Degree Days  
Heating Degree Days 1    
Growing Degree Days 14 (Base 50)    
Moisture  
Dew Point 47 °F    
Average Humidity 54    
Maximum Humidity 92    
Minimum Humidity 29    
Precipitation  
Precipitation 0.00 in - - ()
Sea Level Pressure  
Sea Level Pressure 29.80 in    
Wind  
Wind Speed 8 mph (SSE)    
Max Wind Speed 23 mph    
Max Gust Speed 31 mph    
Visibility 9 miles    
Events      
Averages and records for this station are not official NWS values.
T = Trace of Precipitation, MM = Missing Value Source: NWS Daily Summary

Daily Weather History Graph

Daily Weather History Graph

Search for Another Location

Airport or City:

Trip Planner

Search our weather history database for the weather conditions in past years. The results will help you decide how hot, cold, wet, or windy it might be!

Date:

Astronomy

Sep. 10, 2012 Rise Set
Actual Time 6:51 AM CDT 7:40 PM CDT
Civil Twilight 6:19 AM CDT 8:12 PM CDT
Nautical Twilight 5:42 AM CDT 8:49 PM CDT
Astronomical Twilight 5:03 AM CDT 9:28 PM CDT
Moon 12:54 AM CDT (9/10) 4:27 PM CDT (9/10)
Length of Visible Light 13h 52m
Length of Day
12h 49m
Waning Crescent, 30% of the Moon is Illuminated
Sep 10
Waning Crescent
Sep 15
New
Sep 22
First Quarter
Sep 29
Full
Oct 8
Last Quarter

Hourly Weather History & Observations

Time (CDT) Temp. Dew Point Humidity Pressure Visibility Wind Dir Wind Speed Gust Speed Precip Events Conditions
12:15 AM 51.6 °F 45.7 °F 80% 30.00 in 10.0 mi South 3.5 mph - N/A   Clear
12:35 AM 51.1 °F 45.5 °F 81% 30.00 in 10.0 mi Calm Calm - N/A   Clear
12:55 AM 49.3 °F 45.0 °F 85% 30.00 in 10.0 mi SE 3.5 mph - N/A   Clear
1:15 AM 46.6 °F 44.2 °F 92% 29.99 in 10.0 mi SSE 3.5 mph - N/A   Clear
1:35 AM 47.7 °F 45.0 °F 90% 29.99 in 10.0 mi Calm Calm - N/A   Clear
1:55 AM 48.0 °F 45.3 °F 90% 29.99 in 10.0 mi SE 3.5 mph - N/A   Clear
2:15 AM 48.0 °F 45.1 °F 90% 29.98 in 10.0 mi Calm Calm - N/A   Clear
2:35 AM 48.4 °F 44.6 °F 87% 29.97 in 10.0 mi Calm Calm - N/A   Clear
2:55 AM 48.6 °F 44.8 °F 87% 29.96 in 10.0 mi SSE 4.6 mph - N/A   Clear
3:15 AM 48.2 °F 44.4 °F 87% 29.96 in 10.0 mi SE 4.6 mph - N/A   Clear
3:35 AM 47.8 °F 44.1 °F 87% 29.95 in 10.0 mi SSE 6.9 mph - N/A   Clear
3:55 AM 47.8 °F 44.1 °F 87% 29.94 in 10.0 mi SSE 5.8 mph - N/A   Clear
4:15 AM 48.4 °F 44.1 °F 85% 29.94 in 10.0 mi SSE 6.9 mph - N/A   Clear
4:35 AM 50.7 °F 45.0 °F 81% 29.93 in 10.0 mi South 9.2 mph - N/A   Clear
4:55 AM 52.2 °F 45.5 °F 78% 29.92 in 10.0 mi SSE 8.1 mph - N/A   Clear
5:15 AM 52.7 °F 45.5 °F 76% 29.91 in 10.0 mi SSE 9.2 mph - N/A   Clear
5:35 AM 53.6 °F 45.5 °F 74% 29.91 in 10.0 mi SSE 9.2 mph - N/A   Clear
5:55 AM 53.6 °F 45.5 °F 74% 29.90 in 10.0 mi SSE 9.2 mph - N/A   Clear
6:15 AM 53.8 °F 45.5 °F 74% 29.90 in 10.0 mi SSE 6.9 mph - N/A   Clear
6:35 AM 53.6 °F 45.3 °F 74% 29.89 in 10.0 mi South 8.1 mph - N/A   Clear
6:55 AM 53.8 °F 45.1 °F 73% 29.89 in 10.0 mi South 9.2 mph - N/A   Clear
7:15 AM 54.0 °F 45.1 °F 72% 29.88 in 10.0 mi South 8.1 mph - N/A   Clear
7:35 AM 54.5 °F 45.5 °F 72% 29.87 in 10.0 mi SSE 9.2 mph - N/A   Clear
7:55 AM 55.9 °F 45.9 °F 69% 29.87 in 10.0 mi SSE 10.4 mph - N/A   Clear
8:15 AM 58.3 °F 46.0 °F 64% 29.86 in 7.0 mi South 10.4 mph 16.1 mph N/A   Clear
8:35 AM 60.3 °F 45.9 °F 59% 29.85 in 10.0 mi South 13.8 mph 18.4 mph N/A   Clear
8:55 AM 61.5 °F 45.7 °F 56% 29.84 in 7.0 mi SSE 12.7 mph 18.4 mph N/A   Clear
9:15 AM 63.1 °F 45.9 °F 53% 29.84 in 10.0 mi South 16.1 mph - N/A   Clear
9:35 AM 64.2 °F 45.7 °F 51% 29.83 in 7.0 mi South 11.5 mph 19.6 mph N/A   Clear
9:55 AM 65.5 °F 45.9 °F 49% 29.82 in 10.0 mi SSE 11.5 mph 19.6 mph N/A   Clear
10:15 AM 67.3 °F 45.9 °F 46% 29.82 in 7.0 mi South 13.8 mph 19.6 mph N/A   Clear
10:35 AM 68.5 °F 45.9 °F 44% 29.81 in 10.0 mi SSE 13.8 mph 20.7 mph N/A   Clear
10:55 AM 70.3 °F 46.0 °F 42% 29.81 in 10.0 mi South 15.0 mph 21.9 mph N/A   Clear
11:15 AM 71.4 °F 46.4 °F 41% 29.80 in 7.0 mi South 13.8 mph - N/A   Clear
11:35 AM 72.3 °F 46.8 °F 40% 29.80 in 7.0 mi SSE 16.1 mph 24.2 mph N/A   Clear
11:55 AM 73.0 °F 46.9 °F 39% 29.79 in 10.0 mi SSE 16.1 mph 20.7 mph N/A   Clear
12:15 PM 74.8 °F 47.1 °F 37% 29.77 in 10.0 mi South 15.0 mph 20.7 mph N/A   Clear
12:35 PM 76.8 °F 46.9 °F 35% 29.76 in 10.0 mi South 17.3 mph 25.3 mph N/A   Clear
1:15 PM 78.6 °F 46.6 °F 32% 29.74 in 10.0 mi SSE 21.9 mph 31.1 mph N/A   Clear
1:35 PM 79.7 °F 46.8 °F 31% 29.74 in 7.0 mi South 15.0 mph 29.9 mph N/A   Clear
1:55 PM 81.0 °F 46.9 °F 30% 29.73 in 10.0 mi South 17.3 mph 28.8 mph N/A   Clear
2:15 PM 81.1 °F 46.6 °F 30% 29.72 in 10.0 mi South 20.7 mph 25.3 mph N/A   Clear
2:35 PM 81.3 °F 46.8 °F 30% 29.70 in 7.0 mi SSE 23.0 mph 29.9 mph N/A   Clear
2:55 PM 81.9 °F 46.9 °F 29% 29.69 in 10.0 mi South 21.9 mph 27.6 mph N/A   Clear
3:15 PM 82.4 °F 47.1 °F 29% 29.69 in 7.0 mi South 21.9 mph 29.9 mph N/A   Clear
3:35 PM 82.4 °F 47.3 °F 29% 29.68 in 10.0 mi South 19.6 mph 28.8 mph N/A   Clear
3:55 PM 82.6 °F 47.5 °F 29% 29.68 in 10.0 mi South 20.7 mph 26.5 mph N/A   Clear
4:15 PM 82.2 °F 47.3 °F 29% 29.68 in 7.0 mi SSE 18.4 mph 27.6 mph N/A   Clear
4:35 PM 82.2 °F 47.5 °F 30% 29.69 in 7.0 mi South 16.1 mph 29.9 mph N/A   Clear
4:55 PM 82.0 °F 47.7 °F 30% 29.69 in 10.0 mi South 18.4 mph 24.2 mph N/A   Clear
5:15 PM 82.0 °F 47.8 °F 30% 29.69 in 10.0 mi South 20.7 mph 28.8 mph N/A   Clear
5:35 PM 81.7 °F 47.7 °F 30% 29.69 in 7.0 mi SSE 13.8 mph 19.6 mph N/A   Clear
5:55 PM 80.8 °F 48.4 °F 32% 29.68 in 10.0 mi SSE 11.5 mph 19.6 mph N/A   Clear
6:15 PM 79.7 °F 48.9 °F 34% 29.68 in 7.0 mi SSE 9.2 mph - N/A   Clear
6:35 PM 78.8 °F 49.5 °F 36% 29.68 in 10.0 mi SSE 10.4 mph - N/A   Clear
6:55 PM 78.3 °F 49.5 °F 36% 29.68 in 7.0 mi SSE 11.5 mph - N/A   Clear
7:15 PM 77.5 °F 49.3 °F 37% 29.67 in 7.0 mi South 10.4 mph - N/A   Clear
7:35 PM 77.0 °F 49.1 °F 37% 29.67 in 10.0 mi SSE 9.2 mph - N/A   Clear
7:55 PM 75.4 °F 49.3 °F 40% 29.67 in 10.0 mi SSE 8.1 mph - N/A   Clear
8:15 PM 73.9 °F 49.3 °F 42% 29.67 in 7.0 mi SSE 6.9 mph - N/A   Clear
8:35 PM 72.5 °F 49.1 °F 44% 29.67 in 10.0 mi SSE 10.4 mph - N/A   Clear
8:55 PM 71.2 °F 49.3 °F 46% 29.67 in 10.0 mi SSE 10.4 mph - N/A   Clear
9:15 PM 70.9 °F 49.5 °F 47% 29.68 in 10.0 mi SSE 8.1 mph - N/A   Clear
9:35 PM 70.7 °F 49.8 °F 48% 29.68 in 7.0 mi South 8.1 mph - N/A   Clear
9:55 PM 70.9 °F 50.0 °F 48% 29.68 in 10.0 mi South 9.2 mph - N/A   Clear
10:15 PM 71.4 °F 49.6 °F 46% 29.68 in 10.0 mi South 9.2 mph - N/A   Clear
10:35 PM 71.6 °F 49.3 °F 45% 29.68 in 10.0 mi South 10.4 mph - N/A   Clear
10:55 PM 71.8 °F 49.1 °F 45% 29.68 in 7.0 mi South 10.4 mph 16.1 mph N/A   Clear
11:15 PM 71.2 °F 49.1 °F 45% 29.68 in 10.0 mi South 8.1 mph - N/A   Clear
11:35 PM 70.3 °F 49.1 °F 47% 29.69 in 10.0 mi South 6.9 mph - N/A   Clear
11:55 PM 69.4 °F 49.1 °F 48% 29.69 in 10.0 mi South 6.9 mph - N/A   Clear